1398124826702,166.126
1398124886702,165.271
1398124946702,165.341
1398125006702,164.923
1398125066702,165.301
1398125126702,165.332
1398125186702,164.965
1398125246702,165.190
1398125306702,165.145
1398125366702,165.442
1398125426702,165.140
1398125486702,165.361
1398125546702,165.360
1398125606702,165.387
1398125666702,165.304
1398125726702,165.129
1398125786702,165.409
1398125846702,164.783
1398125906702,164.987
1398125966702,164.753
1398126026702,164.647
1398126086702,164.901
1398126146702,164.894
1398126206702,164.423
1398126266702,164.944
1398126326702,164.836
1398126386702,164.733
1398126446702,165.065
1398126506702,164.436
1398126566702,164.392
1398126626702,164.573
1398126686702,164.975
1398126746702,164.849
1398126806702,164.679
1398126866702,164.652
1398126926702,164.542
1398126986702,164.569
1398127046702,164.356
1398127106702,164.123
1398127166702,164.392
1398127226702,164.199
1398127286702,163.912
1398127346702,164.123
1398127406702,163.946
1398127466702,164.048
1398127526702,164.071
1398127586702,163.768
1398127646702,163.893
1398127706702,163.839
1398127766702,163.636
1398127826702,163.362
1398127886702,163.721
1398127946702,163.662
1398128006702,163.779
1398128066702,163.266
1398128126702,163.335
1398128186702,163.575
1398128246702,163.762
1398128306702,163.557
1398128366702,163.373
1398128426713,163.901
1398128486713,163.678
1398128546713,163.243
1398128606713,163.580
1398128666713,163.108
1398128726713,163.121
1398128786713,163.219
1398128846713,163.172
1398128906713,163.321
1398128966713,163.375
1398129026713,163.837
1398129086713,163.323
1398129146713,163.354
1398129206713,163.339
1398129266713,163.073
1398129326713,163.433
1398129386713,163.924
1398129446713,163.335
1398129506713,163.060
1398129566713,163.559
1398129626713,163.416
1398129686713,163.246
1398129746713,163.174
1398129806713,163.627
1398129866713,163.688
1398129926713,163.732
1398129986713,163.174
1398130046713,163.188
1398130106713,163.179
1398130166713,163.282
1398130226713,163.277
1398130286713,163.288
1398130346713,163.118
1398130406713,162.948
1398130466713,163.000
1398130526713,162.795
1398130586713,162.938
1398130646713,163.256
1398130706713,163.057
1398130766713,163.194
1398130826713,163.004
1398130886713,163.579
1398130946713,163.045
1398131006713,162.784
1398131066713,163.282
1398131126713,163.119
1398131186713,163.451
1398131246713,163.432
1398131306713,163.056
1398131366713,163.117
1398131426713,163.147
1398131486713,163.099
1398131546713,162.690
1398131606713,162.921
1398131666713,162.611
1398131726713,162.849
1398131786713,162.927
1398131846713,163.025
1398131906713,162.778
1398131966713,162.931
1398132026723,162.834
1398132086723,162.718
1398132146723,162.774
1398132206723,163.223
1398132266723,163.037
1398132326723,162.971
1398132386723,162.787
1398132446724,162.752
1398132506724,162.470
1398132566723,162.930
1398132626723,162.914
1398132686723,162.753
1398132746723,162.462
1398132806723,162.316
1398132866723,162.780
1398132926723,162.500
1398132986723,162.466
1398133046723,162.544
1398133106723,162.806
1398133166723,162.271
1398133226723,162.030
1398133286723,162.330
1398133346723,162.704
1398133406723,162.537
1398133466723,162.295
1398133526723,162.376
1398133586723,162.664
1398133646723,162.317
1398133706723,162.704
1398133766723,162.483
1398133826724,162.724
1398133886723,162.721
1398133946723,162.427
1398134006723,162.385
1398134066723,162.512
1398134126723,162.354
1398134186723,162.688
1398134246723,162.384
1398134306723,162.362
1398134366723,163.020
1398134426723,162.831
1398134486723,162.506
1398134546723,162.473
1398134606723,162.599
1398134666723,162.488
1398134726723,162.680
1398134786723,162.616
1398134846723,162.755
1398134906723,162.535
1398134966723,162.532
1398135026723,162.674
1398135086723,162.286
1398135146724,162.441
1398135206724,162.390
1398135266723,162.721
1398135326723,162.210
1398135386723,162.151
1398135446723,162.426
1398135506723,162.352
1398135566723,162.478
1398135626734,162.153
1398135686734,162.193
1398135746734,162.394
1398135806734,161.763
1398135866734,161.759
1398135926734,162.338
1398135986734,162.209
1398136046734,162.313
1398136106734,162.169
1398136166734,161.938
1398136226734,162.278
1398136286734,162.273
1398136826734,162.011
1398136886734,162.154
1398136946734,162.076
1398137006734,162.265
1398137066734,162.425
1398137126734,162.370
1398137186734,162.265
1398137246734,162.422
1398137306734,162.373
1398137366734,162.003
1398137426734,162.390
1398137486734,161.995
1398137546734,162.026
1398137606734,161.899
1398137666734,162.018
1398137726734,162.211
1398137786734,162.395
1398137846734,162.027
1398137906734,161.878
1398137966734,161.914
1398138026734,162.279
1398138086734,162.002
1398138146734,161.727
1398138206734,162.081
1398138266734,161.848
1398138326734,161.488
1398138386734,161.736
1398138446734,162.049
1398138506734,161.754
1398138566734,161.842
1398138626734,161.655
1398138686734,161.665
1398138746734,161.819
1398138806734,161.969
1398138866734,161.642
1398138926734,161.886
1398138986734,161.715
1398139046734,161.774
1398139106734,161.852
1398139166734,162.037
1398139226744,161.686
1398139286744,161.928
1398139346744,161.782
1398139406744,161.902
1398139466744,162.249
1398139526744,162.149
1398139586744,161.900
1398139646744,161.844
1398139706744,162.399
1398139766744,162.174
1398139826744,161.799
1398139886744,161.581
1398139946744,162.177
1398140006744,161.871
1398140066744,161.946
1398140126744,162.098
1398140186744,162.527
1398140246744,162.389
1398140306744,162.331
1398140366744,162.472
1398140426744,162.104
1398140486744,162.219
1398140546744,162.276
1398140606744,162.464
1398140666744,162.590
1398140726744,162.378
1398140786744,162.385
1398140846744,161.983
1398140906744,162.563
1398140966744,162.132
1398141026744,162.622
1398141086744,162.601
1398141146744,162.371
1398141206744,162.597
1398141266744,162.128
1398141326744,162.212
1398141386744,162.264
1398141446744,162.444
1398141506744,162.822
1398141566744,162.245
1398141626744,162.607
1398141686744,162.899
1398141746744,162.820
1398141806744,162.644
1398141866744,162.995
1398141926744,162.496
1398141986744,162.344
1398142046744,162.839
1398142106744,162.677
1398142166744,162.582
1398142226744,162.605
1398142286744,162.534
1398142346744,162.469
1398142406744,162.659
1398142466744,162.303
1398142526744,162.743
1398142586744,162.824
1398142646744,162.626
1398142706744,162.582
1398142766744,162.668
1398142826754,162.573
1398142886754,162.506
1398142946754,162.609
1398143006754,162.537
1398143066754,162.518
1398143126754,162.884
1398143186754,162.490
1398143246754,162.179
1398143306754,162.182
1398143366754,162.580
1398143426754,162.359
1398143486754,162.423
1398143546754,162.618
1398143606754,162.205
1398143666754,162.231
1398143726754,162.577
1398143786754,162.159
1398143846754,162.352
1398143906754,162.584
1398143966754,162.147
1398144026754,162.250
1398144086754,162.430
1398144146754,162.018
1398144206754,162.375
1398144266754,162.175
1398144326754,162.331
1398144386754,162.629
1398144446754,162.691
1398144506754,162.652
1398144566754,162.723
1398144626754,162.898
1398144686754,162.666
1398144746754,162.745
1398144806754,162.725
1398144866754,162.918
1398144926754,162.906
1398144986754,162.703
1398145046754,162.495
1398145106754,162.810
1398145166754,162.636
1398145226754,162.476
1398145286754,162.412
1398145346754,162.620
1398145406754,162.375
1398145466754,162.701
1398145526754,162.037
1398145586754,161.895
1398145646754,162.552
1398145706754,162.048
1398145766754,162.260
1398145826754,161.816
1398145886754,161.585
1398145946754,161.977
1398146006754,161.715
1398146066754,162.303
1398146126754,162.090
1398146186754,161.890
1398146246754,162.089
1398146306754,162.340
1398146366754,162.550
1398146426764,162.224
1398146486764,162.249
1398146546764,162.390
1398146606764,162.270
1398146666764,162.637
1398146726764,162.297
1398146786764,161.975
1398146846764,162.029
1398146906764,161.997
1398146966764,162.119
1398147026764,162.322
1398147086764,161.696
1398147146764,161.895
1398147206764,161.701
1398147266764,161.864
1398147326764,161.892
1398147386764,161.994
1398147446764,161.934
1398147506764,162.240
1398147566764,161.837
1398147626764,162.208
1398147686764,161.954
1398147746764,161.759
1398147806764,162.043
1398147866764,161.728
1398147926764,162.145
1398147986764,161.749
1398148046764,161.940
1398148106764,161.791
1398148166764,161.901
1398148226764,161.656
1398148286764,161.581
1398148346764,161.739
1398148406764,161.811
1398148466764,161.746
1398148526764,162.061
1398148586764,161.568
1398148646764,161.883
1398148706764,161.686
1398148766764,161.722
1398148826764,161.952
1398148886764,162.071
1398148946764,161.677
1398149006764,161.711
1398149066764,161.766
1398149126764,161.659
1398149186764,161.955
1398149246764,161.861
1398149306764,162.022
1398149366764,161.729
1398149426764,162.054
1398149486764,161.891
1398149546764,161.945
1398149606764,161.767
1398149666764,161.511
1398149726764,161.845
1398149786764,162.235
1398149846764,161.746
1398149906764,161.542
1398149966764,162.193
1398150026774,161.555
1398150086774,161.809
1398150146774,161.887
1398150206774,161.609
1398150266774,161.784
1398150326774,161.359
1398150386774,161.996
1398150446774,161.856
1398150506774,162.050
1398150566774,161.896
1398150626774,161.366
1398150686774,161.231
1398150746774,161.653
1398150806774,161.822
1398150866774,161.572
1398150926774,162.080
1398150986774,161.859
1398151046774,161.365
1398151106774,161.610
1398151166774,161.567
1398151226774,161.625
1398151286774,161.625
1398151346774,161.466
1398151406774,161.982
1398151466774,161.950
1398151526774,161.564
1398151586774,161.584
1398151646774,161.720
1398151706774,161.949
1398151766774,161.513
1398151826774,161.417
1398151886774,161.617
1398151946774,161.937
1398152006774,161.483
1398152066774,161.576
1398152126774,161.656
1398152186774,161.274
1398152246774,161.304
1398152306774,161.605
1398152366774,161.484
1398152426774,161.497
1398152486774,161.371
1398152546774,161.584
1398152606774,161.514
1398152666774,161.509
1398152726774,161.572
1398152786774,161.586
1398152846774,161.754
1398152906774,161.585
1398152966774,161.607
1398153026774,161.071
1398153086774,161.848
1398153146774,161.185
1398153206774,161.526
1398153266774,161.837
1398153326774,161.747
1398153386774,161.941
1398153446774,161.673
1398153506774,161.331
1398153566774,161.700
1398153626784,162.167
1398153686784,162.103
1398153746784,161.878
1398153806784,161.790
1398153866784,161.542
1398153926784,161.808
1398153986784,161.495
1398154046784,161.113
1398154106784,161.716
1398154166784,161.406
1398154226784,161.835
1398154286784,161.815
1398154346784,161.596
1398154406784,161.627
1398154466784,161.731
1398154526784,161.567
1398154586784,161.695
1398154646784,161.551
1398154706784,161.925
1398154766784,161.293
1398154826784,161.398
1398154886784,161.361
1398154946784,161.091
1398155006784,161.042
1398155066784,161.426
1398155126784,161.526
1398155186784,161.211
1398155246784,161.713
1398155306784,161.346
1398155366784,161.115
1398155426784,161.679
1398155486784,161.445
1398155546784,161.427
1398155606784,161.371
1398155666784,161.221
1398155726784,161.355
1398155786784,161.098
1398155846784,161.356
1398155906784,161.243
1398155966784,161.072
1398156026784,161.174
1398156086784,161.911
1398156146784,161.408
1398156206784,160.926
1398156266784,161.362
1398156326784,161.417
1398156386784,161.329
1398156446784,161.416
1398156506784,161.435
1398156566784,161.569
1398156626784,161.350
1398156686784,161.105
1398156746784,161.196
1398156806784,161.137
1398156866784,161.209
1398156926784,161.556
1398156986784,161.667
1398157046784,161.447
1398157106784,161.329
1398157166784,161.487
1398157226794,161.576
1398157286794,161.604
1398157346794,161.367
1398157406794,160.936
1398157466794,161.557
1398157526794,161.468
1398157586794,161.340
1398157646794,161.213
1398157706794,161.106
1398157766794,161.084
1398157826794,161.084
1398157886794,160.920
1398157946794,161.220
1398158006794,161.320
1398158066794,160.554
1398158126794,161.353
1398158186794,161.068
1398158246794,160.881
1398158306794,161.079
1398158366794,160.820
1398158426794,161.064
1398158486794,161.073
1398158546794,161.029
1398158606794,160.705
1398158666794,160.981
1398158726794,161.246
1398158786794,160.870
1398158846794,160.935
1398158906794,160.818
1398158966794,160.770
1398159026794,160.917
1398159086794,160.501
1398159146794,161.197
1398159206794,160.829
1398159266794,161.001
1398159326794,161.402
1398159386794,161.221
1398159446794,161.215
1398159506794,161.482
1398159566794,161.260
1398159626794,161.560
1398159686794,161.205
1398159746794,161.059
1398159806794,161.285
1398159866794,161.343
1398159926794,160.911
1398159986794,161.284
1398160046794,161.183
1398160106794,160.956
1398160166794,161.170
1398160226794,160.806
1398160286794,160.857
1398160346794,160.877
1398160406794,160.974
1398160466794,161.200
1398160526794,160.986
1398160586794,160.707
1398160646794,161.072
1398160706794,161.413
1398160766794,161.421
1398160826803,160.959
1398160886803,160.916
1398160946803,161.154
1398161006803,161.066
1398161066803,161.141
1398161126803,160.708
1398161186803,161.014
1398161246803,161.215
1398161306803,161.097
1398161366803,161.042
1398161426803,160.964
1398161486803,160.881
1398161546803,160.882
1398161606803,161.128
1398161666803,161.212
1398161726803,161.050
1398161786803,160.974
1398161846803,160.729
1398161906803,160.669
1398161966803,160.947
1398162026803,160.766
1398162086803,160.940
1398162146803,160.977
1398162206803,161.060
1398162266803,160.795
1398162326803,161.232
1398162386803,161.278
1398162446803,160.673
1398162506803,161.106
1398162566803,161.217
1398162626803,160.981
1398162686803,160.825
1398162746803,161.150
1398162806803,160.787
1398162866803,161.160
1398162926803,160.775
1398162986803,160.905
1398163046803,160.311
1398163106803,160.898
1398163166803,160.920
1398163226803,161.044
1398163286803,160.870
1398163346803,161.191
1398163406803,160.859
1398163466803,160.908
1398163526803,160.785
1398163586803,160.926
1398163646803,161.018
1398163706803,161.069
1398163766803,160.993
1398163826803,160.980
1398163886803,161.167
1398163946803,160.848
1398164006803,161.173
1398164066803,161.050
1398164126803,161.082
1398164186803,160.921
1398164246803,161.207
1398164306803,161.243
1398164366803,161.052
1398164426813,161.345
1398164486813,161.455
1398164546813,161.500
1398164606813,161.360
1398164666813,161.099
1398164726813,161.318
1398164786813,161.276
1398164846813,161.175
1398164906813,161.261
1398164966813,161.479
1398165026813,160.961
1398165086813,161.568
1398165146813,161.321
1398165206813,161.416
1398165266813,161.446
1398165326813,161.552
1398165386813,161.757
1398165446813,161.415
1398165506813,161.492
1398165566813,161.786
1398165626813,161.420
1398165686813,161.431
1398165746813,161.451
1398165806813,161.830
1398165866813,161.836
1398165926813,162.030
1398165986813,161.886
1398166046813,161.494
1398166106813,161.652
1398166166813,161.638
1398166226813,161.707
1398166286813,161.773
1398166346813,161.500
1398166406813,162.663
1398166466813,162.089
1398166526813,162.505
1398166586813,162.668
1398166646813,162.726
1398166706813,163.207
1398166766813,163.083
1398166826813,163.000
1398166886813,162.843
1398166946813,162.628
1398167006813,162.589
1398167066813,162.652
1398167126813,162.661
1398167186813,162.080
1398167246813,162.447
1398167306813,162.613
1398167366813,162.318
1398167426813,162.127
1398167486813,162.639
1398167546813,162.618
1398167606813,162.039
1398167666813,162.665
1398167726813,162.545
1398167786813,162.541
1398167846813,162.742
1398167906813,162.344
1398167966813,162.663
1398168026823,162.622
1398168086823,162.640
1398168146823,162.490
1398168206823,162.517
1398168266823,162.654
1398168326823,162.911
1398168386823,162.902
1398168446823,162.989
1398168506823,162.257
1398168566823,162.713
1398168626823,162.784
1398168686823,162.893
1398168746823,162.928
1398168806823,163.007
1398168866823,163.173
1398168926823,163.027
1398168986823,163.246
1398169046823,162.844
1398169106823,162.820
1398169166823,162.920
1398169226823,162.899
1398169286823,162.802
1398169346823,162.969
1398169406823,163.097
1398169466823,162.950
1398169526823,162.821
1398169586823,163.296
1398169646823,163.168
1398169706823,163.207
1398169766823,163.177
1398169826823,163.352
1398169886823,163.122
1398169946823,163.094
1398170006823,163.116
1398170066823,163.335
1398170126823,163.227
1398170186823,163.268
1398170246823,163.315
1398170306823,163.084
1398170366823,163.470
1398170426823,163.205
1398170486823,163.390
1398170546823,163.379
1398170606823,163.655
1398170666823,163.393
1398170726823,163.184
1398170786823,163.084
1398170846823,163.494
1398170906823,163.035
1398170966823,163.219
1398171026823,163.560
1398171086823,163.511
1398171146823,163.487
1398171206823,163.228
1398171266823,163.825
1398171326823,163.421
1398171386823,163.395
1398171446823,163.410
1398171506823,163.336
1398171566823,163.229
1398171626833,163.297
1398171686833,163.391
1398171746833,163.233
1398171806833,163.412
1398171866833,163.557
1398171926833,163.810
1398171986833,163.406
1398172046833,163.378
1398172106833,163.730
1398172166833,163.469
1398172226833,163.657
1398172286833,163.601
1398172346833,163.547
1398172406833,163.585
1398172466833,163.540
1398172526833,163.652
1398172586833,163.695
1398172646833,163.244
1398172706833,163.289
1398172766833,163.802
1398172826833,163.666
1398172886833,163.731
1398172946833,163.713
1398173006833,164.115
1398173066833,163.424
1398173126833,163.912
1398173186833,163.830
1398173246833,163.863
1398173306833,163.936
1398173366833,163.919
1398173426833,164.061
1398173486833,163.712
1398173546833,163.573
1398173606833,163.891
1398173666833,164.378
1398173726833,163.767
1398173786833,163.871
1398173846833,164.124
1398173906833,163.970
1398173966833,163.851
1398174026833,163.914
1398174086833,164.302
1398174146833,164.310
1398174206833,164.231
1398174266833,164.260
1398174326833,164.144
1398174386833,164.307
1398174446833,164.023
1398174506833,164.290
1398174566833,164.419
1398174626833,164.251
1398174686833,164.648
1398174746833,164.755
1398174806833,164.344
1398174866833,164.287
1398174926833,164.654
1398174986833,164.857
1398175046833,164.709
1398175106833,165.159
1398175166833,164.861
1398175226842,164.774
1398175286842,164.532
1398175346842,165.003
1398175406842,164.485
1398175466842,164.479
1398175526842,164.799
1398175586842,164.813
1398175646842,164.974
1398175706842,164.639
1398175766842,164.714
1398175826842,164.780
1398175886842,164.903
1398175946842,164.929
1398176006842,165.220
1398176066842,164.746
1398176126842,164.880
1398176186842,164.915
1398176246842,164.875
1398176306842,165.007
1398176366842,164.954
1398176426842,165.015
1398176486842,165.105
1398176546842,165.040
1398176606842,165.165
1398176666842,165.096
1398176726842,165.014
1398176786842,165.087
1398176846842,165.384
1398176906842,165.262
1398176966842,164.857
1398177026842,165.216
1398177086842,165.284
1398177146842,165.132
1398177206842,164.830
1398177266842,165.334
1398177326842,165.008
1398177386842,165.000
1398177446842,165.053
1398177506842,165.270
1398177566842,165.093
1398177626842,165.330
1398177686842,165.227
1398177746842,165.049
1398177806842,165.376
1398177866842,165.279
1398177926842,165.023
1398177986842,165.292
1398178046842,165.335
1398178106842,165.229
1398178166842,165.424
1398178226842,165.462
1398178286842,165.467
1398178346842,165.617
1398178406842,165.505
1398178466842,165.417
1398178526842,165.730
1398178586842,165.668
1398178646842,165.750
1398178706842,165.569
1398178766842,165.527
1398178826852,165.578
1398178886852,165.592
1398178946852,165.768
1398179006852,165.932
1398179066852,165.366
1398179126852,165.959
1398179186852,165.598
1398179246852,165.007
1398179306852,165.451
1398179366852,165.320
1398179426852,165.357
1398179486852,165.303
1398179546852,165.524
1398179606852,165.223
1398179666852,165.360
1398179726852,165.420
1398179786852,165.437
1398179846852,165.523
1398179906852,165.812
1398179966852,165.753
1398180026852,165.619
1398180086852,165.561
1398180146852,166.112
1398180206852,165.993
1398180266852,166.164
1398180326852,165.811
1398180386852,165.532
1398180446852,165.562
1398180506852,165.586
1398180566852,165.905
1398180626852,165.791
1398180686852,165.667
1398180746852,166.001
1398180806852,165.855
1398180866852,165.572
1398180926852,165.999
1398180986852,166.120
1398181046852,165.741
1398181106852,165.610
1398181166852,165.663
1398181226852,165.698
1398181286852,165.939
1398181346852,165.744
1398181406852,165.629
1398181466852,165.657
1398181526852,166.090
1398181586852,165.992
1398181646852,165.512
1398181706852,166.084
1398181766852,166.002
1398181826852,166.024
1398181886852,165.915
1398181946852,165.979
1398182006852,165.502
1398182066852,165.672
1398182126852,165.846
1398182186852,165.215
1398182246852,165.458
1398182306852,165.415
1398182366852,165.378
1398182426861,165.551
1398182486861,165.573
1398182546861,165.186
1398182606861,165.441
1398182666861,165.132
1398182726861,165.161
1398182786861,165.542
1398182846861,165.017
1398182906861,165.324
1398182966861,164.959
1398183026861,165.310
1398183086861,165.014
1398183146861,165.345
1398183206861,164.937
1398183266861,164.824
1398183326861,165.203
1398183386861,165.006
1398183446861,165.045
1398183506861,164.852
1398183566861,164.688
1398183626861,165.019
1398183686861,165.030
1398183746861,164.905
1398183806861,165.281
1398183866861,164.800
1398183926861,164.550
1398183986861,164.602
1398184046861,164.728
1398184106861,163.920
1398184166861,164.205
1398184226861,164.210
1398184286861,164.381
1398184346861,164.357
1398184406861,164.160
1398184466861,163.733
1398184526861,163.971
1398184586861,163.876
1398184646861,163.918
1398184706861,163.926
1398184766861,163.776
1398184826861,163.888
1398184886861,163.726
1398184946861,163.684
1398185006861,163.684
1398185066861,163.829
1398185126861,163.948
1398185186861,163.661
1398185246861,163.461
1398185306861,163.592
1398185366861,163.670
1398185426861,163.537
1398185486861,163.256
1398185546861,163.146
1398185606861,163.150
1398185666861,163.232
1398185726861,163.006
1398185786861,162.832
1398185846861,163.193
1398185906861,163.101
1398185966861,162.908
1398186026871,162.578
1398186086871,162.627
1398186146871,162.671
1398186206871,162.739
1398186266871,162.815
1398186326871,162.357
1398186386871,162.361
1398186446871,162.485
1398186506871,162.606
1398186566871,162.525
1398186626871,162.325
1398186686871,162.259
1398186746871,162.598
1398186806871,162.329
1398186866871,162.375
1398186926871,162.122
1398186986871,162.435
1398187046871,162.613
1398187106871,162.675
1398187166871,162.157
1398187226871,162.443
1398187286871,162.489
1398187346871,162.556
1398187406871,162.383
1398187466871,162.440
1398187526871,162.365
1398187586871,162.085
1398187646871,161.917
1398187706871,162.188
1398187766871,162.143
1398187826871,162.244
1398187886871,161.794
1398187946871,162.005
1398188006871,161.803
1398188066871,161.876
1398188126871,161.782
1398188186871,161.936
1398188246871,162.050
1398188306871,162.021
1398188366871,162.098
1398188426871,162.179
1398188486871,161.864
1398188546871,162.113
1398188606871,162.163
1398188666871,162.132
1398188726871,162.172
1398188786871,161.940
1398188846871,161.616
1398188906871,162.049
1398188966871,161.791
1398189026871,161.990
1398189086871,161.848
1398189146871,162.127
1398189206871,161.782
1398189266871,161.817
1398189326871,161.627
1398189386871,161.553
1398189446871,161.687
1398189506871,161.719
1398189566871,161.965
1398189626881,161.772
1398189686881,161.820
1398189746881,161.911
1398189806881,162.006
1398189866881,162.016
1398189926881,161.793
1398189986881,162.147
1398190046881,162.113
1398190106881,161.892
1398190166881,162.144
1398190226881,161.727
1398190286881,161.686
1398190346881,162.002
1398190406881,161.896
1398190466881,161.405
1398190526881,161.660
1398190586881,161.403
1398190646881,161.746